Weather Roundup
Issued by NWS Chicago, IL

Home | Current Version | Previous Version | Text Only | Print | Product List | Glossary On
Versions: 1 2 3 4 5 6 7 8 9 10 11 12 13 14 15 16 17 18 19 20 21 22 23 24 25 26 27 28 29 30 31 32 33 34 35 36 37 38 39 40 41 42 43 44 45 46 47 48 49 50
000
NZUS59 KLOT 070421
HRRLOT

CHICAGO AREA WEATHER ROUNDUP
NATIONAL WEATHER SERVICE CHICAGO/ROMEOVILLE IL
1100 PM CDT MON JUL 06 2015

NOTE: "FAIR" INDICATES FEW OR NO CLOUDS BELOW 12,000 FEET WITH NO
SIGNIFICANT WEATHER AND/OR OBSTRUCTIONS TO VISIBILITY.

* THESE STATIONS ARE NOT UNDER NWS QUALITY CONTROL. THEY ALSO MAY NOT
  REPORT WEATHER SUCH AS PRECIPITATION OR FOG.

ILZ005-006-012>014-019>023-070500-
NORTHEAST ILLINOIS

CITY           SKY/WX    TMP DP  RH WIND       PRES   REMARKS
OHARE          RAIN      70  67  90 W17G25    29.87R FOG
MIDWAY         LGT RAIN  74  68  81 S7        29.85F
AURORA         LGT RAIN  72  69  90 NW3       29.88S
LANSING*       CLOUDY    74  66  77 SW7       29.87F
JOLIET*        CLOUDY    73  71  96 CALM      29.87S
WAUKEGAN       HVY RAIN  70  69  97 SW22G31   29.87R FOG
DUPAGE AIRPORT RAIN      71  69  93 W5        29.87F
WHEELING       LGT RAIN  72  67  84 W9G21     29.87S
KANKAKEE*      CLOUDY    77  72  84 S12       29.87F
MORRIS*        HVY RAIN  73  71  91 NW12      29.86R
LEWIS AIRPORT* LGT RAIN  71  70  97 W6        29.87R
NORTHERLY IS     N/A     73  67  81 S9          N/A
$$

WIZ051-052-058>065-066-070>072-070500-
SOUTHEAST WISCONSIN

CITY           SKY/WX    TMP DP  RH WIND       PRES   REMARKS
MILWAUKEE      CLOUDY    74  69  85 SW9       29.82S
KENOSHA*       LGT RAIN  74  69  85 SW17G28   29.86R
RACINE*        CLOUDY    75  68  78 SW10      29.85R
BURLINGTON     HVY RAIN  71  68  90 SW10G16   29.85R
WAUKESHA       DRIZZLE   72  70  94 S3        29.83S
WEST BEND      RAIN      73  68  83 SW3       29.82S
$$

INZ001>003-010>013-019-020-070500-
NORTHWEST INDIANA

CITY           SKY/WX    TMP DP  RH WIND       PRES   REMARKS
GARY*          CLOUDY   N/A N/A N/A CALM      29.87F
MICHIGAN CITY* NOT AVBL
RENSSELAER*    NOT AVBL
VALPARAISO     CLOUDY    76  72  87 SW8       29.88F
$$

LMZ740>746-070500-
SOUTHERN LAKE MICHIGAN

STATION/POSITION TIME  SKY/WX   TEMP WIND        PRES    VSBY
                                AIR  DIR/SP/G
                 (UTC)          (F)  (DEG/KT/KT) (MB)    (MI)
HARRISON CRIB    0400            73  200/ 18/ 24   N/A
BURNHAM HARBOR   0400            73  190/  7/ 12   N/A
CALUMET HARBOR   0300            74  260/  5/ 11   N/A
BURNS HARBOR     0300            76  190/ 11/ 15 1012.2R
MICHIGAN CITY    0400            76  160/ 12/ 15   N/A
$$

ABBREVIATIONS USED IN REMARKS
   TC - TEMPERATURE IN CELSIUS
  WCI - WIND CHILL INDEX
   HX - HEAT INDEX
  VSB - VISIBILITY
$$


USA.gov is the U.S. government's official web portal to all federal, state and local government web resources and services.